Weather History for Brookings, SD

Change the Weather History Date:

Tuesday, February 26, 2013

  Actual Average Record
Temperature  
Mean Temperature 19 °F -  
Max Temperature 24 °F 27 °F 42 °F (1999)
Min Temperature 14 °F 12 °F -5 °F (2011)
Degree Days  
Heating Degree Days 46    
Moisture  
Dew Point 19 °F    
Average Humidity 96    
Maximum Humidity 100    
Minimum Humidity 86    
Precipitation  
Precipitation 0.00 in - - ()
Sea Level Pressure  
Sea Level Pressure 29.96 in    
Wind  
Wind Speed 7 mph (NE)    
Max Wind Speed 16 mph    
Max Gust Speed 18 mph    
Visibility 2 miles    
Events      
Averages and records for this station are not official NWS values.
T = Trace of Precipitation, MM = Missing Value Source: NWS Daily Summary

Daily Weather History Graph

Daily Weather History Graph

Search for Another Location

Airport:

Trip Planner

Search our weather history database for the weather conditions in past years. The results will help you decide how hot, cold, wet, or windy it might be!

Date:

Astronomy

Feb. 26, 2013 Rise Set
Actual Time 7:09 AM CST 6:11 PM CST
Civil Twilight 6:39 AM CST 6:41 PM CST
Nautical Twilight 6:06 AM CST 7:14 PM CST
Astronomical Twilight 5:32 AM CST 7:48 PM CST
Moon 7:34 PM CST (2/26) 7:08 AM CST (2/26)
Length of Visible Light 12h 01m
Length of Day
11h 02m
Full, 99% of the Moon is Illuminated
Feb 26
Full
Mar 4
Last Quarter
Mar 11
New
Mar 19
First Quarter
Mar 27
Full

Hourly Weather History & Observations

Time (CST) Temp. Windchill Dew Point Humidity Pressure Visibility Wind Dir Wind Speed Gust Speed Precip Events Conditions
12:15 AM 21.2 °F 14.9 °F 19.4 °F 93% 29.98 in 0.2 mi East 4.6 mph - N/A   Overcast
12:35 AM 19.4 °F - 19.4 °F 100% 29.99 in 0.5 mi Calm Calm - N/A   Overcast
12:55 AM 19.4 °F 9.5 °F 19.4 °F 100% 30.00 in 0.5 mi ESE 8.1 mph - N/A   Overcast
1:15 AM 19.4 °F 10.4 °F 19.4 °F 100% 29.99 in 0.5 mi East 6.9 mph - N/A   Overcast
1:35 AM 19.4 °F 11.5 °F 19.4 °F 100% 29.99 in 0.8 mi East 5.8 mph - N/A   Overcast
1:55 AM 19.4 °F 9.5 °F 19.4 °F 100% 30.00 in 0.8 mi ESE 8.1 mph - N/A   Overcast
2:15 AM 19.4 °F 11.5 °F 19.4 °F 100% 30.00 in 0.8 mi East 5.8 mph - N/A   Overcast
2:35 AM 19.4 °F 12.8 °F 17.6 °F 93% 29.99 in 1.0 mi East 4.6 mph - N/A   Overcast
2:55 AM 19.4 °F 12.8 °F 17.6 °F 93% 29.98 in 1.0 mi East 4.6 mph - N/A   Overcast
3:15 AM 19.4 °F 12.8 °F 17.6 °F 93% 29.97 in 1.0 mi East 4.6 mph - N/A   Overcast
3:35 AM 19.4 °F 14.3 °F 17.6 °F 93% 29.96 in 0.8 mi East 3.5 mph - N/A   Overcast
3:55 AM 17.6 °F 9.3 °F 17.6 °F 100% 29.97 in 1.0 mi ESE 5.8 mph - N/A   Overcast
4:15 AM 17.6 °F 9.3 °F 17.6 °F 100% 29.97 in 1.0 mi SE 5.8 mph - N/A   Overcast
4:35 AM 17.6 °F 8.2 °F 15.8 °F 93% 29.96 in 0.8 mi ENE 6.9 mph - N/A   Overcast
4:55 AM 15.8 °F 8.6 °F 14.0 °F 93% 29.96 in 1.0 mi East 4.6 mph - N/A   Overcast
5:15 AM 15.8 °F 10.2 °F 14.0 °F 93% 29.95 in 0.8 mi ENE 3.5 mph - N/A   Overcast
5:35 AM 15.8 °F - 14.0 °F 93% 29.95 in 0.8 mi Calm Calm - N/A   Overcast
5:55 AM 15.8 °F 7.2 °F 14.0 °F 93% 29.95 in 0.5 mi NNE 5.8 mph - N/A   Overcast
6:15 AM 15.8 °F 10.2 °F 14.0 °F 93% 29.95 in 0.2 mi NNE 3.5 mph - N/A   Overcast
6:35 AM 14.0 °F 5.1 °F 14.0 °F 100% 29.95 in 0.2 mi NNE 5.8 mph - N/A   Overcast
6:55 AM 15.8 °F 8.6 °F 14.0 °F 93% 29.95 in 0.2 mi NE 4.6 mph - N/A   Overcast
7:15 AM 14.0 °F 5.1 °F 12.2 °F 93% 29.95 in 0.2 mi ENE 5.8 mph - N/A   Overcast
7:35 AM 15.8 °F 8.6 °F 12.2 °F 86% 29.95 in 0.2 mi NE 4.6 mph - N/A   Overcast
7:55 AM 15.8 °F 5.1 °F 12.2 °F 86% 29.95 in 0.2 mi NE 8.1 mph - N/A   Overcast
8:15 AM 14.0 °F 3.9 °F 12.2 °F 93% 29.95 in 0.2 mi ENE 6.9 mph - N/A   Overcast
8:35 AM 15.8 °F 3.4 °F 12.2 °F 86% 29.95 in 0.2 mi ENE 10.4 mph - N/A   Overcast
8:55 AM 15.8 °F 4.2 °F 15.8 °F 100% 29.96 in 0.2 mi East 9.2 mph - N/A   Overcast
9:15 AM 15.8 °F 6.1 °F 15.8 °F 100% 29.97 in 0.2 mi NE 6.9 mph - N/A   Overcast
9:35 AM 17.6 °F 12.3 °F 15.8 °F 93% 29.97 in 0.2 mi East 3.5 mph - N/A   Overcast
9:55 AM 17.6 °F - 15.8 °F 93% 29.98 in 0.2 mi Calm Calm - N/A   Overcast
10:15 AM 19.4 °F 14.3 °F 19.4 °F 100% 29.98 in 0.5 mi ENE 3.5 mph - N/A   Overcast
10:35 AM 21.2 °F 11.7 °F 19.4 °F 93% 29.98 in 0.8 mi East 8.1 mph - N/A   Overcast
10:55 AM 21.2 °F 12.6 °F 21.2 °F 100% 29.98 in 1.0 mi East 6.9 mph - N/A   Overcast
11:15 AM 21.2 °F 13.6 °F 21.2 °F 100% 29.97 in 1.2 mi East 5.8 mph - N/A   Overcast
11:35 AM 21.2 °F 11.7 °F 21.2 °F 100% 29.97 in 1.5 mi East 8.1 mph - N/A   Overcast
12:15 PM 23.0 °F 13.9 °F 21.2 °F 93% 29.97 in 1.8 mi ENE 8.1 mph - N/A   Overcast
12:35 PM 23.0 °F 13.9 °F 21.2 °F 93% 29.96 in 1.8 mi East 8.1 mph - N/A   Overcast
12:55 PM 23.0 °F 13.1 °F 23.0 °F 100% 29.96 in 2.0 mi ENE 9.2 mph - N/A   Overcast
1:15 PM 23.0 °F 13.9 °F 23.0 °F 100% 29.94 in 2.5 mi NE 8.1 mph - N/A   Overcast
1:35 PM 24.8 °F 16.9 °F 23.0 °F 93% 29.94 in 2.5 mi NE 6.9 mph - N/A   Overcast
1:55 PM 24.8 °F 16.1 °F 24.8 °F 100% 29.93 in 2.5 mi NNE 8.1 mph - N/A   Overcast
2:15 PM 24.8 °F 16.1 °F 24.8 °F 100% 29.93 in 3.0 mi NNE 8.1 mph - N/A   Overcast
2:35 PM 24.8 °F 14.6 °F 23.0 °F 93% 29.92 in 3.0 mi NNE 10.4 mph - N/A   Overcast
2:55 PM 24.8 °F 14.6 °F 23.0 °F 93% 29.93 in 3.0 mi NNE 10.4 mph - N/A   Overcast
3:15 PM 23.0 °F 12.4 °F 21.2 °F 93% 29.92 in 3.0 mi NNE 10.4 mph - N/A   Overcast
3:35 PM 23.0 °F 11.7 °F 21.2 °F 93% 29.93 in 2.5 mi NNE 11.5 mph - N/A   Overcast
3:55 PM 23.0 °F 13.1 °F 21.2 °F 93% 29.93 in 2.5 mi North 9.2 mph - N/A   Overcast
4:15 PM 23.0 °F 10.6 °F 23.0 °F 100% 29.93 in 2.5 mi North 13.8 mph - N/A   Overcast
4:35 PM 23.0 °F 11.7 °F 23.0 °F 100% 29.93 in 2.5 mi North 11.5 mph - N/A   Overcast
4:55 PM 23.0 °F 11.7 °F 21.2 °F 93% 29.94 in 2.5 mi North 11.5 mph - N/A   Overcast
5:15 PM 23.0 °F 11.7 °F 21.2 °F 93% 29.95 in 2.5 mi North 11.5 mph - N/A   Overcast
5:35 PM 21.2 °F 8.9 °F 19.4 °F 93% 29.94 in 2.0 mi North 12.7 mph - N/A   Overcast
5:55 PM 21.2 °F 8.3 °F 21.2 °F 100% 29.95 in 2.0 mi North 13.8 mph - N/A   Overcast
6:15 PM 21.2 °F 7.8 °F 19.4 °F 93% 29.95 in 2.0 mi North 15.0 mph - N/A   Overcast
6:35 PM 21.2 °F 8.3 °F 21.2 °F 100% 29.95 in 2.5 mi North 13.8 mph - N/A   Overcast
6:55 PM 21.2 °F 7.3 °F 21.2 °F 100% 29.96 in 3.0 mi North 16.1 mph - N/A   Overcast
7:15 PM 21.2 °F 7.8 °F 19.4 °F 93% 29.97 in 3.0 mi North 15.0 mph - N/A   Overcast
7:35 PM 21.2 °F 9.5 °F 19.4 °F 93% 29.97 in 2.5 mi North 11.5 mph - N/A   Overcast
7:55 PM 21.2 °F 8.3 °F 21.2 °F 100% 29.98 in 2.5 mi North 13.8 mph 18.4 mph N/A   Overcast
8:15 PM 21.2 °F 10.1 °F 21.2 °F 100% 29.98 in 2.5 mi North 10.4 mph - N/A   Overcast
8:35 PM 21.2 °F 9.5 °F 21.2 °F 100% 29.98 in 2.5 mi North 11.5 mph - N/A   Overcast
8:55 PM 21.2 °F 8.9 °F 21.2 °F 100% 29.98 in 2.0 mi North 12.7 mph - N/A   Overcast
9:15 PM 21.2 °F 8.3 °F 21.2 °F 100% 29.98 in 2.0 mi North 13.8 mph - N/A   Overcast
9:35 PM 21.2 °F 10.1 °F 19.4 °F 93% 29.97 in 1.5 mi North 10.4 mph - N/A   Overcast
9:55 PM 21.2 °F 8.9 °F 19.4 °F 93% 29.97 in 2.0 mi NNW 12.7 mph - N/A   Overcast
10:15 PM 21.2 °F 11.7 °F 19.4 °F 93% 29.98 in 2.5 mi North 8.1 mph - N/A   Overcast
10:55 PM 19.4 °F 8.6 °F 19.4 °F 100% 29.98 in 3.0 mi NNW 9.2 mph - N/A   Scattered Clouds
11:15 PM 19.4 °F 9.5 °F 17.6 °F 93% 29.98 in 3.0 mi NW 8.1 mph - N/A   Clear
11:35 PM 19.4 °F 9.5 °F 17.6 °F 93% 29.98 in 3.0 mi NW 8.1 mph - N/A   Clear
11:55 PM 19.4 °F 8.6 °F 17.6 °F 93% 29.98 in 3.0 mi NW 9.2 mph - N/A   Clear